This is the latest recevied weather packets stored in our database for station/object UR7D-12. If no packets are shown the sender has not sent any weather packets the latest 10 day(s).
| Time | Temp. | Humidity | Pressure | Rain* | Wind** | Luminosity | Snow |
|---|---|---|---|---|---|---|---|
| 1778036236 | 11.11° C | 69% | 986.3 hPa | 0 mm | - | - | - |
| 1778035936 | 11.67° C | 69% | 986.2 hPa | 0 mm | - | - | - |
| 1778035636 | 12.22° C | 67% | 986.2 hPa | 0 mm | - | - | - |
| 1778035335 | 12.22° C | 66% | 986.2 hPa | 0 mm | - | - | - |
| 1778035035 | 12.22° C | 65% | 986.1 hPa | 0 mm | - | - | - |
| 1778034735 | 12.78° C | 65% | 986.1 hPa | 0 mm | - | - | - |
| 1778034435 | 12.78° C | 64% | 986 hPa | 0 mm | - | - | - |
| 1778034134 | 12.78° C | 64% | 986 hPa | 0 mm | - | - | - |
| 1778033834 | 12.78° C | 63% | 985.9 hPa | 0 mm | - | - | - |
| 1778033534 | 12.78° C | 63% | 985.9 hPa | 0 mm | - | - | - |
| 1778033233 | 13.33° C | 62% | 986 hPa | 0 mm | - | - | - |
| 1778032933 | 13.33° C | 62% | 986.1 hPa | 0 mm | - | - | - |
| 1778032633 | 12.78° C | 64% | 986.2 hPa | 0 mm | - | - | - |
| 1778032333 | 12.78° C | 64% | 986.2 hPa | 0 mm | - | - | - |
| 1778032032 | 12.78° C | 64% | 986.2 hPa | 0 mm | - | - | - |
| 1778031432 | 13.33° C | 63% | 986.1 hPa | 0 mm | - | - | - |
| 1778031131 | 13.33° C | 62% | 986 hPa | 0 mm | - | - | - |
| 1778030831 | 13.89° C | 61% | 985.8 hPa | 0 mm | - | - | - |
| 1778030531 | 13.89° C | 61% | 985.8 hPa | 0 mm | - | - | - |
| 1778030231 | 13.89° C | 61% | 985.6 hPa | 0 mm | - | - | - |
| 1778027828 | 15° C | 57% | 985.5 hPa | 0 mm | - | - | - |
| 1778027528 | 15° C | 57% | 985.6 hPa | 0 mm | - | - | - |
| 1778026928 | 15° C | 57% | 985.6 hPa | 0 mm | - | - | - |
| 1778025126 | 14.44° C | 59% | 985.6 hPa | 0 mm | - | - | - |
| 1778022724 | 15.56° C | 57% | 985.9 hPa | 0 mm | - | - | - |
* Rain latest hour (hover to see other rain measurements)
** Current wind speed in m/s (hover to see current wind gust speed)